GFSSW_250_spd_132.txt.gz
Wind_Speed
57 59 57 56 53 52 52 47 41 39 39 35 31 28 25 24 23 30 41 57 75 82 81 80 77 101 104 102 100 99 93 87 82 81 80 84 87 79 72 70 64 57 57 57 54
61 64 61 60 58 57 54 53 50 47 42 40 38 32 31 28 26 36 32 33 60 80 87 85 86 86 104 104 103 100 94 90 88 90 89 90 87 80 76 72 66 61 56 56 53
65 67 66 64 64 64 60 57 56 54 48 48 44 37 36 34 34 37 35 39 39 64 85 89 88 87 90 105 100 100 96 96 97 96 97 96 90 88 85 78 72 66 60 54 53
72 74 72 71 71 69 66 66 63 58 57 55 53 44 39 37 39 46 39 46 42 41 65 87 92 90 89 94 108 105 101 101 103 103 101 98 96 93 91 83 78 72 66 55 53
74 76 77 76 78 79 78 70 67 65 62 63 60 55 45 42 46 49 49 41 45 45 44 72 90 96 94 94 99 110 106 108 107 106 103 103 101 93 95 85 81 75 71 61 37
80 81 83 84 86 86 83 78 73 72 69 67 65 58 49 33 58 50 50 46 42 48 51 50 74 94 101 101 97 95 113 113 114 108 108 104 104 101 95 92 84 81 77 68 67
89 89 92 90 96 91 88 83 83 79 76 76 68 61 51 45 64 57 49 52 49 52 54 56 59 81 93 101 102 98 97 115 113 111 112 110 107 100 99 96 91 87 82 75 76
93 92 95 99 101 101 97 89 88 85 81 78 75 67 50 60 68 64 65 55 53 57 60 60 63 62 85 95 102 104 99 98 112 116 113 116 106 104 104 100 97 94 89 84 84
99 99 104 104 114 107 98 92 93 88 82 82 76 68 56 70 73 81 65 54 61 61 64 64 61 61 67 80 93 102 100 99 102 111 122 119 109 109 108 105 102 101 97 92 89
104 106 112 117 119 105 94 94 97 92 88 86 81 73 69 79 83 84 72 69 63 70 66 59 55 54 57 56 68 85 100 108 106 106 119 124 112 112 113 110 108 104 102 98 96
111 111 119 130 119 105 98 94 92 86 83 79 77 74 77 81 79 85 79 78 74 72 61 62 62 51 52 50 52 72 94 108 115 115 115 122 122 113 116 114 110 110 105 104 100
119 120 124 127 110 102 92 75 67 62 57 59 63 61 74 92 85 90 87 82 75 66 67 59 55 60 65 59 60 63 80 100 115 118 116 113 118 121 116 117 113 111 109 105 106
124 127 135 117 107 90 73 61 54 46 46 58 47 53 74 73 82 96 89 86 80 75 67 56 60 67 66 65 63 64 66 83 102 117 120 116 112 119 121 115 114 112 109 108 106
128 128 131 111 93 72 62 50 44 39 39 39 36 45 58 51 68 89 91 88 83 72 69 66 66 69 69 66 65 62 62 74 88 106 115 122 113 107 114 122 120 114 112 106 109
129 135 120 98 77 64 52 43 34 29 24 29 27 38 41 46 75 72 86 87 80 71 69 62 63 64 64 63 62 59 71 74 79 90 105 113 114 112 114 113 114 114 110 112 111
131 129 112 87 69 55 45 36 26 21 20 21 24 28 30 45 54 70 81 84 83 78 74 74 71 67 64 66 64 69 70 69 73 78 81 96 109 116 113 108 109 110 115 113 115
135 119 102 77 66 52 40 29 19 14 10 8 14 20 34 42 52 64 77 83 84 81 73 68 65 64 65 66 59 59 58 61 62 62 69 84 92 100 113 114 113 108 108 114 119
124 111 91 71 59 46 34 24 17 8 4 4 6 10 27 37 47 62 70 77 75 71 71 66 58 54 51 43 46 50 54 54 55 65 72 75 69 84 97 113 116 112 111 110 112
114 104 82 67 54 42 32 22 14 4 2 5 6 13 25 32 46 57 64 70 70 66 62 62 55 53 43 49 44 43 39 50 60 67 66 61 64 74 76 89 104 113 113 110 107
108 97 77 63 50 39 30 22 9 3 6 6 7 13 26 32 42 51 59 63 66 63 63 58 57 49 50 47 44 43 49 43 44 54 58 54 60 66 66 70 81 97 108 110 112
102 89 71 58 47 36 29 19 8 6 8 4 4 15 28 35 42 48 54 59 61 60 59 55 51 49 45 41 37 38 26 29 39 42 47 51 53 59 65 69 79 82 88 97 103
98 82 67 54 43 33 27 18 7 8 9 9 12 19 29 39 43 47 51 57 59 55 53 52 48 48 43 42 38 22 22 27 35 35 36 39 35 44 53 56 68 79 80 81 86
93 75 62 48 39 31 23 10 4 9 16 19 25 30 37 41 46 48 51 55 55 51 49 46 43 42 41 37 34 23 16 17 24 25 33 29 25 16 24 38 45 52 58 70 79
91 71 59 45 34 27 15 15 5 3 8 15 27 34 41 45 43 46 44 47 52 51 43 41 43 38 38 33 26 17 13 10 18 27 38 26 16 7 10 11 21 30 42 34 41
86 66 54 41 29 20 14 12 6 5 5 17 29 36 39 44 45 46 46 47 45 40 43 45 44 41 46 33 25 23 18 13 21 35 48 37 35 25 7 10 20 22 35 44 45
81 60 50 37 25 18 12 7 1 6 14 17 33 36 38 39 40 40 43 40 36 36 43 44 40 38 32 26 17 16 13 8 21 33 50 44 21 32 37 16 24 29 36 44 50
77 56 46 33 19 12 6 8 5 15 13 22 26 29 36 36 35 37 38 37 36 37 40 43 42 38 29 19 16 20 16 12 14 39 43 39 29 38 38 36 33 30 33 37 53

GFSSW_250_spd_138.txt.gz
Wind_Speed
56 59 62 65 66 63 60 59 59 54 50 47 44 42 38 38 40 43 48 48 45 53 64 70 86 89 88 83 85 87 86 84 89 89 89 90 87 85 78 73 69 64 66 68 63
62 64 68 71 69 65 64 65 63 61 59 58 55 52 47 43 43 48 50 47 47 51 58 63 81 91 90 89 83 87 86 83 94 95 95 95 91 88 85 80 72 67 67 67 67
69 73 77 76 72 70 67 65 66 65 67 67 66 64 57 51 46 51 53 53 51 53 61 63 70 87 93 92 87 82 85 88 98 99 99 100 95 93 89 85 79 72 68 68 70
77 78 77 77 74 71 71 71 71 72 73 72 71 67 64 60 57 54 60 56 56 58 59 65 67 76 86 92 91 86 85 89 99 104 101 105 102 95 93 89 85 79 73 70 68
80 81 81 81 80 77 76 76 75 77 76 74 75 74 71 65 68 63 62 65 64 60 63 64 67 68 81 91 96 91 87 89 98 106 106 108 105 100 94 91 88 85 80 75 71
85 84 84 85 83 83 84 83 82 84 86 85 85 83 76 69 80 77 70 68 70 69 64 69 67 72 75 86 96 96 94 91 95 108 109 107 109 104 95 94 93 89 85 80 77
90 89 89 90 90 90 91 90 94 94 93 94 93 90 84 81 92 89 78 74 75 74 70 69 73 71 74 78 90 97 96 93 91 100 111 111 111 102 102 97 96 94 90 84 80
94 93 93 93 94 94 95 97 101 102 100 100 100 98 91 95 98 91 90 82 79 81 78 74 72 74 70 74 78 95 99 96 93 91 102 111 103 106 107 101 100 97 94 90 85
97 98 100 101 100 99 99 101 95 89 88 89 89 87 85 94 96 98 95 86 88 89 87 80 73 71 74 74 72 85 94 98 95 95 95 106 104 106 109 106 102 100 98 94 91
104 106 106 106 103 104 97 86 81 77 78 78 77 79 80 86 88 94 93 92 90 94 93 85 76 70 68 70 69 69 89 97 98 97 93 102 107 107 107 108 107 103 101 98 96
111 112 110 108 106 96 82 70 66 61 61 61 57 58 64 70 85 91 90 94 96 98 96 89 80 66 61 66 71 73 75 92 97 99 98 95 109 112 112 107 107 105 104 101 99
110 114 113 112 100 85 70 58 54 50 51 44 42 50 47 56 70 86 90 96 99 95 99 95 79 72 71 70 72 74 74 78 87 101 102 102 100 110 115 111 108 111 109 107 104
112 115 112 109 93 74 63 53 45 40 38 34 33 39 40 47 61 70 84 96 99 101 97 90 82 80 75 70 72 71 75 76 73 92 104 104 103 101 110 115 110 108 111 111 107
118 116 112 101 84 69 58 49 40 33 28 24 22 25 30 40 55 55 70 90 98 98 95 96 90 85 79 74 70 71 70 77 76 82 102 106 103 103 102 107 114 112 112 114 113
117 115 108 93 76 65 55 46 37 28 24 20 19 18 25 35 43 49 63 74 91 99 99 91 88 86 79 77 79 71 71 76 82 84 87 102 102 101 104 102 105 114 117 116 115
119 115 103 86 73 64 51 41 34 26 23 18 15 16 23 26 36 44 59 68 87 98 99 96 91 91 84 85 81 77 76 78 79 85 80 80 93 92 99 107 108 108 112 116 118
116 110 99 81 71 60 47 39 28 24 21 18 13 13 17 23 35 45 52 62 78 95 102 98 94 96 93 90 85 77 77 79 80 77 73 73 78 76 91 104 106 107 107 111 118
117 109 99 77 67 57 45 36 30 26 20 15 11 8 12 19 30 38 47 57 74 92 97 94 101 102 94 89 78 73 73 72 69 68 69 70 67 75 92 96 104 107 109 109 108
120 112 95 75 61 51 43 36 33 29 20 13 8 5 9 14 23 32 41 53 64 83 93 92 93 91 88 84 81 78 72 69 68 70 72 77 82 82 89 88 97 106 105 108 109
120 110 93 69 56 45 38 32 32 31 24 13 7 1 8 13 19 29 39 49 61 78 90 90 91 88 87 83 79 72 70 64 62 64 71 75 79 76 80 81 85 92 102 103 106
124 112 90 67 52 41 34 33 34 32 26 17 12 6 12 14 18 28 37 44 56 72 85 90 88 86 85 79 73 68 65 62 63 63 70 72 74 74 78 79 76 76 77 83 90
120 109 89 62 43 35 32 30 30 32 27 21 17 12 12 17 21 30 35 43 53 67 78 81 83 81 77 75 73 67 63 58 55 55 58 64 70 72 74 74 73 70 68 71 73
115 112 89 61 36 29 28 27 27 28 26 24 19 16 14 19 23 26 37 42 54 64 72 77 79 79 81 78 74 66 61 56 54 59 62 64 63 63 65 65 66 65 66 65 56
117 107 85 58 34 24 22 23 24 23 22 22 19 18 15 22 23 27 34 44 53 61 68 73 72 68 62 62 62 57 52 51 52 56 59 60 55 56 58 57 51 47 44 37 36
113 106 83 55 31 23 18 19 20 20 20 19 16 18 19 20 21 27 32 38 44 52 57 59 62 63 63 60 57 53 50 49 50 55 53 52 45 41 46 45 41 40 47 48 45
112 103 83 53 30 20 13 14 16 17 16 16 14 17 22 22 24 25 28 32 34 41 46 50 54 56 52 50 51 50 48 48 51 48 44 36 34 42 46 46 44 38 30 31 27
112 103 82 53 27 18 7 9 13 15 17 16 16 18 21 24 24 25 28 32 33 35 38 42 45 45 45 46 44 42 42 42 43 34 30 35 40 36 33 26 28 39 38 27 26

GFSSW_250_spd_141.txt.gz
Wind_Speed
58 61 63 63 65 64 66 66 64 63 61 57 55 53 50 49 48 49 53 53 47 46 46 50 58 73 83 92 88 84 86 79 78 92 93 90 87 84 80 72 68 63 65 67 68
62 66 67 70 72 70 71 68 68 66 65 63 60 58 55 53 53 54 56 56 53 53 52 50 55 65 78 88 94 88 81 86 84 90 100 97 94 89 83 78 71 68 66 67 69
67 71 76 79 80 79 77 75 73 70 68 67 66 61 60 59 58 58 61 60 60 56 61 56 53 59 68 81 92 92 85 85 90 88 101 103 99 94 88 82 77 71 69 68 70
78 82 87 86 84 85 82 79 78 78 78 73 70 70 65 63 62 64 65 64 63 64 63 64 59 55 62 70 85 93 92 86 90 94 96 104 104 98 94 86 81 78 73 70 70
87 92 91 88 90 91 92 91 88 85 83 83 81 76 73 68 69 71 69 68 66 67 66 67 66 60 61 67 77 93 95 93 91 96 95 102 105 102 98 92 86 82 78 74 73
95 97 94 94 93 93 94 92 91 85 84 83 85 83 78 73 86 80 79 74 72 69 69 70 70 68 66 67 72 81 97 98 95 94 97 98 102 103 100 96 91 86 82 79 77
95 98 90 94 96 98 98 97 87 84 84 83 85 81 79 86 95 89 82 82 79 75 74 74 75 72 67 68 68 74 92 98 97 94 93 102 99 95 100 100 97 92 87 83 81
95 92 92 94 97 103 103 95 86 85 84 84 85 87 86 88 99 96 93 87 83 84 81 79 79 78 72 69 70 71 79 96 97 96 93 96 96 96 96 99 101 98 93 89 86
97 95 101 98 110 102 92 80 74 72 72 72 75 80 83 93 97 98 98 95 93 91 88 84 79 81 77 73 73 69 70 82 97 98 97 93 95 98 97 98 101 102 99 95 91
97 95 102 114 112 94 79 66 58 55 54 52 55 63 69 81 93 96 98 101 102 101 95 87 82 81 80 74 67 68 66 73 84 98 100 96 94 97 98 99 100 104 102 100 97
97 99 106 117 102 81 68 59 52 49 44 42 45 46 53 66 76 88 92 99 103 106 102 96 86 76 78 76 73 72 71 73 74 87 101 100 99 97 98 97 99 106 107 103 102
103 105 112 109 92 74 65 55 47 42 40 37 38 37 43 50 58 72 84 95 98 101 104 103 87 86 86 82 76 71 74 72 75 79 96 103 101 101 99 98 96 103 108 109 108
108 109 108 109 89 74 63 57 51 42 33 28 32 29 34 42 46 57 70 86 93 99 96 95 93 91 90 86 81 73 76 74 76 77 83 100 103 102 100 97 94 96 105 110 111
113 112 110 105 88 77 66 52 47 44 34 26 26 23 25 33 41 50 62 75 85 91 90 95 97 96 93 89 84 75 74 79 77 75 78 88 99 103 102 101 97 96 99 106 109
120 116 109 100 88 77 64 56 47 39 33 25 19 18 17 27 34 44 52 61 76 86 85 85 92 96 94 91 85 79 75 76 78 76 79 77 89 96 101 102 101 98 95 101 106
121 116 108 100 87 78 68 57 49 38 29 24 19 15 12 19 30 39 49 56 66 80 86 90 97 101 96 97 90 90 82 77 77 78 76 76 75 82 94 102 102 101 97 92 100
120 112 108 100 89 78 66 56 47 42 27 23 21 17 11 13 25 33 42 53 60 73 88 90 97 103 103 105 99 93 85 79 75 75 72 74 73 73 85 92 98 100 97 96 91
126 112 102 101 88 75 65 54 45 41 31 25 21 16 13 9 17 25 33 44 54 68 86 90 100 106 103 101 90 85 80 75 68 68 70 69 70 74 75 81 89 95 97 97 98
122 114 102 98 87 73 64 53 44 35 30 25 23 15 11 7 11 20 29 40 51 62 81 95 96 99 100 99 97 90 82 77 69 69 69 66 68 73 73 72 75 80 92 97 99
123 111 99 95 85 72 60 51 41 36 32 28 20 15 10 3 8 16 26 34 46 59 79 93 96 99 99 99 96 89 84 74 68 67 63 63 66 71 73 73 72 73 79 92 100
125 110 98 92 81 67 59 46 43 32 30 28 20 17 9 3 6 14 22 33 45 59 78 92 98 98 95 91 89 90 83 75 71 67 61 63 64 66 70 70 70 71 75 79 84
128 104 93 89 78 64 51 40 38 32 27 26 23 18 15 10 10 14 22 33 43 57 77 90 94 91 87 87 87 84 77 71 68 63 58 59 62 63 67 67 68 71 73 74 73
127 107 87 82 73 61 46 34 32 30 26 24 22 16 16 10 12 18 24 33 41 54 72 87 91 92 93 90 87 80 73 71 67 65 62 58 60 62 66 67 68 72 72 70 66
122 103 89 81 69 55 44 32 29 26 26 22 20 18 16 16 11 20 25 32 40 53 70 79 83 80 74 72 73 70 70 69 67 66 63 60 61 61 62 64 68 69 68 65 65
127 106 87 76 63 51 39 27 24 24 22 21 20 18 18 16 19 18 23 30 39 49 63 75 79 78 76 74 72 69 68 66 64 62 60 59 58 56 56 59 62 58 57 56 55
130 106 83 73 60 46 33 21 18 18 20 18 19 22 21 19 19 19 22 26 35 45 56 67 73 74 71 71 69 66 66 66 63 60 61 59 54 51 54 56 57 51 50 51 50
128 105 82 73 56 40 28 17 13 13 17 15 18 22 21 22 22 21 24 28 33 41 49 58 66 66 66 65 67 67 64 62 61 60 57 53 52 50 48 52 49 45 42 43 48

GFSSW_250_spd_144.txt.gz
Wind_Speed
57 59 66 72 72 73 77 75 74 70 69 69 66 67 66 66 66 64 65 65 61 58 55 55 51 56 75 89 92 92 91 85 84 87 96 94 90 89 81 77 69 68 64 66 68
65 68 77 78 80 78 80 76 75 75 74 72 72 72 71 70 71 71 72 71 67 63 62 60 58 53 61 82 92 93 89 87 92 90 92 96 95 94 87 79 76 69 70 65 69
74 80 83 84 83 81 82 83 80 81 79 78 74 75 75 76 75 75 79 77 73 68 67 64 63 59 55 65 84 93 91 92 92 93 92 95 100 95 92 86 83 74 71 70 67
80 83 86 87 88 86 85 84 87 90 86 82 81 78 77 76 82 81 86 83 80 77 72 68 67 64 59 58 67 85 94 96 92 93 100 94 101 98 96 92 84 81 74 73 70
85 84 86 89 88 87 85 84 100 100 100 95 92 82 77 76 87 88 88 88 86 83 80 74 69 69 65 61 65 74 89 99 95 97 97 99 98 101 100 96 89 85 81 75 74
87 90 93 84 85 83 90 102 95 92 92 90 87 88 79 79 92 85 95 90 90 88 85 80 72 71 69 68 61 66 84 92 99 98 98 96 100 99 100 96 94 89 85 80 75
93 98 97 98 86 103 104 99 82 72 69 68 71 74 79 82 86 85 90 96 92 89 88 87 79 75 74 72 70 65 74 86 95 99 99 99 97 98 99 97 98 95 89 86 81
100 103 98 86 98 98 101 83 67 57 53 53 57 63 67 73 86 90 89 94 95 92 90 89 85 79 79 76 72 68 68 76 81 95 98 99 94 98 99 93 95 98 94 91 88
107 102 98 97 95 98 89 73 57 48 47 47 46 50 57 68 81 91 92 94 98 99 95 91 86 85 79 76 76 69 67 68 75 81 95 98 98 96 97 99 93 97 99 96 93
107 104 95 90 99 97 80 66 61 50 40 37 39 38 48 60 68 81 94 97 96 99 99 93 89 86 83 78 69 66 71 70 72 76 84 98 100 99 94 97 98 94 101 102 98
106 108 98 89 101 89 78 63 58 55 50 36 30 31 37 48 57 70 87 99 101 101 98 98 93 82 75 75 82 78 78 75 72 70 78 91 101 99 100 95 99 97 97 103 104
109 106 99 92 94 86 75 62 57 48 45 38 27 24 27 35 48 59 75 94 103 102 102 102 88 89 88 86 84 81 76 75 75 70 76 81 91 99 100 98 96 99 97 102 105
105 111 102 94 91 85 73 63 55 49 43 40 35 25 23 26 39 52 62 78 98 108 103 96 94 94 92 86 85 82 79 78 76 73 75 76 81 94 98 98 97 95 99 96 99
110 110 100 95 88 83 74 65 60 52 44 41 32 24 21 23 28 41 52 64 83 100 104 103 103 100 94 89 88 86 84 80 81 77 75 72 75 80 88 97 97 95 95 99 98
118 113 104 92 88 83 73 64 57 52 49 38 29 21 17 20 23 31 42 52 68 88 104 108 106 99 97 94 92 88 86 81 82 79 78 74 73 75 77 89 95 97 95 94 95
123 115 104 94 88 82 68 62 56 50 48 37 27 21 12 15 20 26 36 47 59 76 94 105 105 102 102 100 98 91 87 84 85 81 75 73 72 70 73 75 88 95 95 94 92
125 118 104 95 84 78 65 60 53 49 46 36 26 20 13 9 15 22 30 42 54 67 84 101 107 108 108 105 103 95 91 89 88 77 70 72 73 71 71 72 74 86 94 94 94
128 125 102 97 86 73 63 58 54 49 45 38 30 21 14 7 7 19 28 37 47 59 78 92 101 108 107 103 92 85 84 82 79 75 69 66 72 69 69 70 69 71 83 94 95
126 126 109 95 82 69 60 56 54 49 44 38 27 26 16 8 2 14 23 31 41 55 69 86 98 100 101 102 99 98 95 89 82 80 70 67 68 67 67 65 68 67 69 79 93
127 125 112 92 82 69 57 54 48 45 42 37 30 22 17 7 1 9 19 28 37 48 63 83 93 95 98 100 100 92 94 84 81 77 74 68 61 63 63 64 64 66 66 68 77
123 123 113 93 83 65 55 52 45 41 38 35 29 21 17 11 5 9 17 25 35 46 60 77 89 96 99 93 90 98 94 89 83 78 73 66 63 55 59 61 62 63 65 65 66
121 127 112 93 81 62 51 45 40 35 34 33 29 24 18 13 8 13 18 27 35 47 62 82 88 89 77 85 89 92 91 84 81 76 70 69 63 59 55 58 61 62 63 65 66
121 130 113 96 81 61 50 42 35 30 31 31 26 20 18 15 11 15 17 26 36 46 58 69 86 91 95 94 94 93 88 86 82 76 73 68 65 61 56 57 57 60 61 61 62
120 127 117 99 82 60 51 43 33 27 27 27 24 22 20 15 15 16 18 25 36 52 63 67 75 75 71 69 75 81 81 82 81 75 73 70 65 61 57 55 56 57 58 60 60
118 123 117 99 81 58 46 39 31 23 23 23 22 20 20 19 16 15 18 23 33 44 47 71 78 81 82 82 81 82 80 79 79 75 74 72 67 61 59 57 56 57 60 60 62
117 121 117 97 76 57 43 39 28 20 18 19 21 20 20 19 16 19 20 23 29 35 44 65 77 78 80 78 77 77 77 79 79 77 73 70 65 63 62 60 58 58 59 59 60
117 123 115 99 74 57 41 35 27 17 14 16 18 19 22 19 21 20 21 24 28 36 49 64 74 74 75 75 75 75 75 77 77 75 72 70 67 65 63 62 63 61 58 57 56

GFSSW_250_spd_147.txt.gz
Wind_Speed
56 60 64 67 73 77 82 86 82 80 83 78 77 76 73 76 79 79 76 77 73 72 68 66 63 61 67 80 90 95 91 88 93 100 93 94 95 91 87 79 68 69 66 58 62
61 65 67 73 82 87 91 90 94 92 89 87 86 82 80 76 81 83 86 79 80 76 75 72 69 67 63 69 84 92 92 89 94 102 103 100 94 95 93 82 77 74 71 68 63
67 71 75 85 88 91 93 92 101 99 97 97 89 82 85 83 83 84 86 89 86 83 83 80 76 72 67 65 70 85 90 95 98 98 108 107 98 94 97 89 83 80 76 71 65
73 78 82 86 98 97 102 106 107 101 94 85 87 87 92 84 90 78 94 94 92 89 88 86 82 77 73 67 65 72 84 95 99 103 98 103 107 98 103 93 92 86 73 74 71
77 83 92 98 92 108 109 112 101 87 86 85 85 89 90 95 99 80 92 97 97 94 92 91 87 83 77 76 71 65 74 91 99 101 101 99 106 109 107 100 98 86 78 80 80
87 88 96 99 106 111 111 100 90 83 79 73 67 66 71 79 97 82 95 96 97 99 97 96 93 89 86 81 75 72 71 80 96 100 101 104 103 104 109 107 101 94 88 86 82
91 95 101 108 113 112 105 87 81 72 65 56 53 54 59 63 80 87 91 97 102 103 102 100 99 96 90 84 80 77 74 72 87 96 102 105 107 99 101 102 103 98 97 91 84
95 99 111 106 105 100 88 79 69 62 56 47 39 45 51 57 68 82 88 93 98 106 107 102 101 97 93 89 85 79 76 69 69 85 96 105 101 101 103 98 95 101 103 95 91
99 111 109 115 113 100 86 78 70 56 49 45 38 33 45 49 62 68 81 86 94 104 111 106 106 100 100 93 90 85 72 70 70 71 91 97 103 103 102 101 97 97 102 100 96
103 115 108 104 103 98 88 71 66 53 42 41 40 30 36 44 53 61 72 83 97 99 110 109 109 105 104 102 88 75 72 75 70 71 75 86 99 105 101 101 95 96 100 102 101
107 116 115 108 104 95 77 73 58 47 43 39 34 27 27 38 45 50 61 76 94 100 102 111 110 103 94 90 88 83 85 80 77 73 70 75 90 101 103 101 96 96 95 99 103
116 112 107 112 112 92 79 70 57 49 44 35 38 26 20 28 35 40 52 66 83 97 101 112 105 101 103 102 99 94 87 82 80 77 68 68 77 94 100 102 99 98 97 99 99
121 111 107 107 106 91 81 69 55 50 44 39 35 29 17 18 29 34 46 57 75 96 107 103 104 107 104 102 101 96 88 84 80 76 69 71 72 78 88 98 102 100 96 96 99
122 113 109 102 101 89 80 65 55 50 46 40 36 30 23 16 20 28 39 51 68 90 102 100 106 108 105 102 101 98 90 84 82 74 68 72 69 71 78 89 98 99 98 94 96
118 111 109 101 99 89 77 62 53 50 47 38 33 25 21 18 19 24 35 46 61 82 101 105 110 113 108 102 99 96 90 85 81 75 77 74 73 69 70 75 87 95 97 96 95
116 109 110 98 95 85 74 61 53 51 47 40 34 26 20 14 16 20 31 41 55 75 94 104 110 111 104 101 96 95 93 91 84 79 81 73 69 73 63 61 73 84 93 97 96
117 112 112 99 95 84 71 60 53 53 47 42 35 26 17 10 11 19 27 37 50 67 90 102 109 108 107 104 102 101 95 92 88 86 73 70 70 76 66 62 62 71 79 91 97
117 113 113 100 95 82 69 57 53 55 49 42 35 29 20 9 8 16 23 34 45 60 86 100 103 109 108 104 106 93 86 83 78 75 76 73 72 72 58 61 60 59 66 73 87
117 114 114 103 93 80 66 58 54 55 47 42 36 29 21 11 4 10 18 30 43 56 73 96 101 103 103 102 102 94 91 84 83 81 80 76 76 69 60 63 61 60 58 60 68
115 115 118 101 95 82 66 57 54 52 46 41 35 29 21 10 2 6 16 28 38 51 65 88 102 103 104 105 101 92 91 92 87 88 85 78 70 66 61 62 59 57 56 57 58
115 115 121 110 95 82 67 57 54 49 46 43 36 28 20 13 3 7 14 22 31 44 55 71 96 106 108 108 98 100 102 92 88 84 81 73 70 66 63 62 55 54 55 56 57
113 120 122 110 95 82 63 54 51 50 46 42 36 27 19 14 5 8 13 22 32 43 49 62 84 92 95 95 94 91 87 88 89 86 78 75 73 66 62 52 49 49 55 56 56
113 117 115 113 100 83 66 56 52 48 42 40 35 29 20 14 9 12 14 21 30 37 44 55 71 87 103 105 104 99 96 92 91 83 77 68 64 61 59 53 51 49 49 50 51
113 116 116 114 100 80 63 53 49 47 40 36 33 28 21 18 15 15 17 22 29 40 48 53 67 79 89 96 98 95 90 88 82 77 73 70 63 62 59 56 51 48 49 47 48
112 115 113 112 97 78 62 50 44 45 36 32 30 26 23 19 17 15 15 21 29 34 42 53 64 77 91 92 90 89 85 82 79 77 74 69 69 64 62 57 59 56 53 50 51
112 112 112 109 96 78 62 46 40 44 34 29 26 23 21 18 17 15 16 15 22 31 38 51 66 75 85 87 88 89 86 82 80 78 76 72 70 65 64 63 61 60 57 53 50
113 114 112 110 98 81 62 44 38 38 31 25 23 21 18 20 17 16 15 16 20 23 31 40 55 68 77 82 85 85 80 80 78 74 73 71 66 69 67 65 64 62 60 56 53